Location: Boley
(53.1150°N, 8.2269°W)
Time: 00:20:16
(UTC+00:00)

Cosmos 2098 Rocket - Pass Details

Date: 15 May 2026
Orbit: 346 x 837 km, 82.9° (Epoch: 9 June)

Event Time Altitude Azimuth Distance (km) Brightness Sun altitude
Exits shadow 22:29:29 - 198° (SSW) 2,228 5.5 -13.3°
Reaches altitude 10° 22:29:48 10° 199° (SSW) 2,102 5.4 -13.4°
Maximum altitude 22:34:26 66° 282° (WNW) 661 3.3 -13.7°
Drops below altitude 10° 22:38:25 10° 5° (N) 1,806 6.4 -14.0°
Sets 22:40:25 0° 9° (N) 2,622 7.2 -14.1°
